This is the latest recevied weather packets stored in our database for station/object KJ6APE. If no packets are shown the sender has not sent any weather packets the latest 10 day(s).
| Time | Temp. | Humidity | Pressure | Rain* | Wind** | Luminosity | Snow |
|---|---|---|---|---|---|---|---|
| 1778256707 | 16.67° C | 65% | 1018.8 hPa | 0 mm | - | 457 W/m² | - |
| 1778256405 | 16.11° C | 66% | 1018.5 hPa | 0 mm | - | 440 W/m² | - |
| 1778256103 | 16.11° C | 65% | 1018.7 hPa | 0 mm | - | 421 W/m² | - |
| 1778255799 | 15.56° C | 67% | 1018.7 hPa | 0 mm | - | 401 W/m² | - |
| 1778255496 | 15.56° C | 68% | 1018.8 hPa | 0 mm | - | 378 W/m² | - |
| 1778255193 | 15.56° C | 68% | 1018.6 hPa | 0 mm | - | 362 W/m² | - |
| 1778254890 | 15° C | 69% | 1018.7 hPa | 0 mm | - | 348 W/m² | - |
| 1778254587 | 15° C | 70% | 1018.6 hPa | 0 mm | - | 297 W/m² | - |
| 1778254284 | 15° C | 70% | 1018.5 hPa | 0 mm | - | 309 W/m² | - |
| 1778253980 | 15° C | 70% | 1018.8 hPa | 0 mm | - | 292 W/m² | - |
| 1778253676 | 15° C | 72% | 1018.5 hPa | 0 mm | - | 273 W/m² | - |
| 1778253373 | 14.44° C | 72% | 1018.7 hPa | 0 mm | - | 255 W/m² | - |
| 1778253070 | 14.44° C | 72% | 1018.6 hPa | 0 mm | - | 232 W/m² | - |
| 1778252767 | 14.44° C | 72% | 1018.7 hPa | 0 mm | - | 212 W/m² | - |
| 1778252463 | 14.44° C | 73% | 1018.8 hPa | 0 mm | - | 192 W/m² | - |
| 1778252159 | 13.89° C | 74% | 1018.6 hPa | 0 mm | - | 174 W/m² | - |
| 1778251856 | 13.89° C | 74% | 1018.8 hPa | 0 mm | - | 158 W/m² | - |
| 1778251554 | 13.89° C | 76% | 1018.8 hPa | 0 mm | - | 142 W/m² | - |
| 1778251251 | 13.89° C | 77% | 1018.7 hPa | 0 mm | - | 127 W/m² | - |
| 1778250948 | 13.33° C | 78% | 1018.6 hPa | 0 mm | - | 112 W/m² | - |
| 1778250645 | 13.33° C | 78% | 1018.6 hPa | 0 mm | - | 99 W/m² | - |
| 1778250342 | 12.78° C | 79% | 1018.5 hPa | 0 mm | - | 87 W/m² | - |
| 1778250038 | 12.78° C | 80% | 1018.4 hPa | 0 mm | - | 75 W/m² | - |
| 1778249735 | 12.78° C | 80% | 1018.6 hPa | 0 mm | - | 66 W/m² | - |
| 1778249433 | 12.22° C | 81% | 1018.7 hPa | 0 mm | - | 55 W/m² | - |
* Rain latest hour (hover to see other rain measurements)
** Current wind speed in m/s (hover to see current wind gust speed)